| time (UTC) | temp F | wind direction | speed MPH | gust MPH | rain 1hr in | rain 24hr in | rain mn in | humidity % | barometer mb |
| 20260509173018 | 83 | 15 | 0.0 | 0.0 | 0.00 | 0.00 | 0.00 | 70 | 1010.2 |
| 20260509171511 | 82 | 39 | 0.0 | 0.0 | 0.00 | 0.00 | 0.00 | 68 | 1010.3 |
| 20260509170007 | 82 | 72 | 0.0 | 0.0 | 0.00 | 0.00 | 0.00 | 54 | 1010.4 |
| 20260509164503 | 79 | 32 | 0.0 | 0.0 | 0.00 | 0.00 | 0.00 | 16 | 1010.7 |
| 20260509163058 | 78 | 22 | 0.0 | 0.0 | 0.00 | 0.00 | 0.00 | 8 | 1011.0 |
| 20260509161555 | 78 | 45 | 0.0 | 0.0 | 0.00 | 0.00 | 0.00 | 1 | 1010.9 |
| 20260509160048 | 77 | 203 | 0.0 | 0.0 | 0.00 | 0.00 | 0.00 | 1 | 1011.0 |
| 20260509154544 | 77 | 271 | 0.0 | 0.0 | 0.00 | 0.00 | 0.00 | 1 | 1011.0 |
| 20260509153045 | 77 | 17 | 0.0 | 0.0 | 0.00 | 0.00 | 0.00 | 1 | 1010.9 |
| 20260509151535 | 76 | 16 | 0.0 | 0.0 | 0.00 | 0.00 | 0.00 | 1 | 1010.9 |
| 20260509150038 | 75 | 16 | 0.0 | 0.0 | 0.00 | 0.00 | 0.00 | 1 | 1010.8 |
| 20260509144530 | 75 | 16 | 0.0 | 0.0 | 0.00 | 0.00 | 0.00 | 1 | 1010.2 |
| 20260509143022 | 74 | 16 | 0.0 | 0.0 | 0.00 | 0.00 | 0.00 | 1 | 1010.1 |
| 20260509141522 | 73 | 259 | 0.0 | 0.0 | 0.00 | 0.00 | 0.00 | 1 | 1009.7 |
| 20260509140013 | 73 | 209 | 0.0 | 0.0 | 0.00 | 0.00 | 0.00 | 1 | 1009.1 |
| 20260509134512 | 72 | 217 | 0.0 | 0.0 | 0.00 | 0.00 | 0.00 | 1 | 1008.8 |
| 20260509133012 | 72 | 296 | 2.0 | 7.0 | 0.00 | 0.00 | 0.00 | 1 | 1008.8 |
| 20260509131600 | 0 | 0.0 | 0.0 | 0.00 | 0.00 | 0.00 | 1009.1 | ||
| 20260509130100 | 0 | 0.0 | 0.0 | 0.00 | 0.00 | 0.00 | 1009.3 | ||
| 20260509124550 | 0 | 0.0 | 0.0 | 0.00 | 0.00 | 0.00 | 1009.1 | ||
| 20260509123101 | 0 | 0.0 | 0.0 | 0.00 | 0.00 | 0.00 | 1009.1 | ||
| 20260509121602 | 0 | 0.0 | 0.0 | 0.00 | 0.00 | 0.00 | 1009.1 | ||
| 20260509120041 | 0 | 0.0 | 0.0 | 0.00 | 0.00 | 0.00 | 1009.7 | ||
| 20260509114539 | 0 | 0.0 | 0.0 | 0.00 | 0.00 | 0.00 | 1009.4 | ||
| 20260509113037 | 0 | 0.0 | 0.0 | 0.00 | 0.00 | 0.00 | 1010.1 | ||
| 20260509111529 | 0 | 0.0 | 0.0 | 0.00 | 0.00 | 0.00 | 1010.3 | ||
| 20260509110023 | 0 | 0.0 | 0.0 | 0.00 | 0.00 | 0.00 | 1010.7 | ||
| 20260509104533 | 0 | 0.0 | 0.0 | 0.00 | 0.00 | 0.00 | 1010.6 | ||
| 20260509103014 | 0 | 0.0 | 0.0 | 0.00 | 0.00 | 0.00 | 1010.4 | ||
| 20260509101510 | 0 | 0.0 | 0.0 | 0.00 | 0.00 | 0.00 | 1010.4 | ||
| 20260509100006 | 0 | 0.0 | 0.0 | 0.00 | 0.00 | 0.00 | 1010.2 | ||
| 20260509094505 | 0 | 0.0 | 0.0 | 0.00 | 0.00 | 0.00 | 1010.1 | ||
| 20260509093106 | 0 | 0.0 | 0.0 | 0.00 | 0.00 | 0.00 | 1009.8 | ||
| 20260509091552 | 0 | 0.0 | 0.0 | 0.00 | 0.00 | 0.00 | 1010.2 | ||
| 20260509090055 | 0 | 0.0 | 0.0 | 0.00 | 0.00 | 0.00 | 1009.9 | ||
| 20260509084546 | 0 | 0.0 | 0.0 | 0.00 | 0.00 | 0.00 | 1009.8 | ||
| 20260509083039 | 71 | 226 | 0.0 | 0.0 | 0.00 | 0.00 | 0.00 | 1 | 1010.1 |
| 20260509081540 | 72 | 224 | 0.0 | 0.0 | 0.00 | 0.00 | 0.00 | 1 | 1010.2 |
| 20260509080029 | 72 | 224 | 0.0 | 0.0 | 0.00 | 0.00 | 0.00 | 1 | 1010.3 |
| 20260509074539 | 72 | 224 | 0.0 | 0.0 | 0.00 | 0.00 | 0.00 | 1 | 1010.6 |
| 20260509073021 | 72 | 223 | 0.0 | 0.0 | 0.00 | 0.00 | 0.00 | 1 | 1010.5 |
| 20260509071517 | 72 | 222 | 0.0 | 3.0 | 0.00 | 0.00 | 0.00 | 1 | 1010.3 |
| 20260509070013 | 72 | 266 | 0.0 | 0.0 | 0.00 | 0.00 | 0.00 | 1 | 1010.6 |
| 20260509064508 | 72 | 227 | 1.0 | 5.0 | 0.00 | 0.00 | 0.00 | 1 | 1010.6 |
| 20260509063003 | 72 | 219 | 0.0 | 6.0 | 0.00 | 0.00 | 0.00 | 1 | 1010.3 |
| 20260509061606 | 72 | 278 | 0.0 | 6.0 | 0.00 | 0.00 | 0.00 | 1 | 1010.4 |
| 20260509060055 | 72 | 173 | 0.0 | 4.0 | 0.00 | 0.00 | 0.00 | 1 | 1010.0 |
| 20260509054600 | 71 | 174 | 1.0 | 6.0 | 0.00 | 0.00 | 0.00 | 1 | 1009.8 |
| 20260509053049 | 71 | 187 | 0.0 | 0.0 | 0.00 | 0.00 | 0.00 | 1 | 1009.9 |
| 20260509051542 | 71 | 278 | 0.0 | 0.0 | 0.00 | 0.00 | 0.00 | 1 | 1009.7 |
| 20260509050039 | 71 | 178 | 1.0 | 7.0 | 0.00 | 0.00 | 0.00 | 1 | 1009.8 |
| 20260509044532 | 71 | 200 | 1.0 | 6.0 | 0.00 | 0.00 | 0.00 | 1 | 1009.8 |
| 20260509043027 | 71 | 209 | 0.0 | 5.0 | 0.00 | 0.00 | 0.00 | 1 | 1009.4 |
| 20260509041532 | 71 | 179 | 0.0 | 6.0 | 0.00 | 0.00 | 0.00 | 1 | 1009.3 |
| 20260509040018 | 72 | 188 | 0.0 | 3.0 | 0.00 | 0.00 | 0.00 | 1 | 1009.1 |
| 20260509034515 | 72 | 193 | 0.0 | 3.0 | 0.00 | 0.00 | 0.00 | 1 | 1009.1 |
| 20260509033010 | 73 | 193 | 0.0 | 3.0 | 0.00 | 0.00 | 0.00 | 1 | 1009.3 |
| 20260509031506 | 73 | 177 | 0.0 | 4.0 | 0.00 | 0.00 | 0.00 | 1 | 1009.1 |
| 20260509030002 | 74 | 183 | 1.0 | 4.0 | 0.00 | 0.00 | 0.00 | 1 | 1008.8 |
| 20260509024559 | 74 | 179 | 1.0 | 6.0 | 0.00 | 0.00 | 0.00 | 1 | 1008.6 |
| 20260509023107 | 75 | 233 | 0.0 | 4.0 | 0.00 | 0.00 | 0.00 | 1 | 1008.7 |
| 20260509021548 | 75 | 171 | 0.0 | 5.0 | 0.00 | 0.00 | 0.00 | 8 | 1008.6 |
| 20260509020052 | 75 | 221 | 1.0 | 9.0 | 0.00 | 0.00 | 0.00 | 14 | 1008.4 |
| 20260509014540 | 75 | 185 | 2.0 | 6.0 | 0.00 | 0.00 | 0.00 | 17 | 1008.5 |
| 20260509013042 | 75 | 176 | 0.0 | 6.0 | 0.00 | 0.00 | 0.00 | 22 | 1008.4 |
| 20260509011530 | 76 | 220 | 0.0 | 3.0 | 0.00 | 0.00 | 0.00 | 26 | 1008.4 |
| 20260509010024 | 76 | 182 | 1.0 | 4.0 | 0.00 | 0.00 | 0.00 | 31 | 1008.4 |
| 20260509004522 | 76 | 182 | 0.0 | 2.0 | 0.00 | 0.00 | 0.00 | 36 | 1008.3 |
| 20260509003016 | 77 | 182 | 0.0 | 0.0 | 0.00 | 0.00 | 0.00 | 45 | 1008.5 |
| 20260509001512 | 77 | 182 | 0.0 | 1.0 | 0.00 | 0.00 | 0.00 | 50 | 1008.6 |
| 20260509000007 | 78 | 182 | 0.0 | 0.0 | 0.00 | 0.00 | 0.00 | 50 | 1008.6 |
| 20260508234502 | 78 | 182 | 0.0 | 0.0 | 0.00 | 0.00 | 0.00 | 53 | 1008.6 |
| 20260508233117 | 78 | 182 | 0.0 | 2.0 | 0.00 | 0.00 | 0.00 | 59 | 1008.6 |
| 20260508231554 | 79 | 187 | 0.0 | 1.0 | 0.00 | 0.00 | 0.00 | 66 | 1008.5 |
| 20260508230049 | 81 | 188 | 0.0 | 1.0 | 0.00 | 0.00 | 0.00 | 68 | 1008.5 |
| 20260508224545 | 82 | 188 | 0.0 | 4.0 | 0.00 | 0.00 | 0.00 | 68 | 1008.7 |
| 20260508223040 | 81 | 188 | 0.0 | 0.0 | 0.00 | 0.00 | 0.00 | 67 | 1008.5 |
| 20260508221536 | 80 | 188 | 0.0 | 4.0 | 0.00 | 0.00 | 0.00 | 68 | 1008.6 |
| 20260508220031 | 82 | 188 | 0.0 | 3.0 | 0.00 | 0.00 | 0.00 | 68 | 1008.6 |
| 20260508214530 | 82 | 99 | 0.0 | 2.0 | 0.00 | 0.00 | 0.00 | 68 | 1008.7 |
| 20260508213028 | 81 | 177 | 1.0 | 3.0 | 0.00 | 0.00 | 0.00 | 69 | 1009.1 |
| 20260508211532 | 81 | 177 | 0.0 | 4.0 | 0.00 | 0.00 | 0.00 | 68 | 1009.4 |
| 20260508210014 | 79 | 170 | 0.0 | 7.0 | 0.00 | 0.00 | 0.00 | 67 | 1009.7 |
| 20260508204509 | 79 | 181 | 0.0 | 6.0 | 0.00 | 0.00 | 0.00 | 66 | 1010.0 |
| 20260508203006 | 78 | 268 | 0.0 | 4.0 | 0.00 | 0.00 | 0.00 | 61 | 1010.2 |
| 20260508201601 | 77 | 157 | 0.0 | 3.0 | 0.00 | 0.00 | 0.00 | 57 | 1010.3 |
| 20260508200111 | 77 | 148 | 0.0 | 0.0 | 0.00 | 0.00 | 0.00 | 64 | 1010.5 |
| 20260508194552 | 77 | 62 | 0.0 | 4.0 | 0.00 | 0.00 | 0.00 | 59 | 1010.6 |
| 20260508193122 | 76 | 171 | 0.0 | 3.0 | 0.00 | 0.00 | 0.00 | 46 | 1010.7 |
| 20260508191545 | 75 | 78 | 0.0 | 5.0 | 0.00 | 0.00 | 0.00 | 47 | 1011.1 |
| 20260508190038 | 75 | 134 | 0.0 | 2.0 | 0.00 | 0.00 | 0.00 | 51 | 1011.2 |
| 20260508184535 | 74 | 61 | 0.0 | 3.0 | 0.00 | 0.00 | 0.00 | 53 | 1011.4 |
| 20260508183029 | 75 | 171 | 0.0 | 2.0 | 0.00 | 0.00 | 0.00 | 54 | 1011.5 |
| 20260508181531 | 74 | 173 | 0.0 | 2.0 | 0.00 | 0.00 | 0.00 | 53 | 1011.9 |
| 20260508180021 | 74 | 173 | 0.0 | 3.0 | 0.00 | 0.00 | 0.00 | 53 | 1012.0 |
| 20260508174516 | 74 | 185 | 0.0 | 3.0 | 0.00 | 0.00 | 0.00 | 53 | 1012.1 |